Regional Weather Roundup
Issued by NWS

Home | Current Version | Previous Version | Text Only | Print | Product List | Glossary On
Versions: 1 2 3 4 5 6 7 8 9 10 11 12 13 14 15 16 17 18 19 20 21 22 23 24 25 26 27 28 29 30 31 32 33 34 35 36 37 38 39 40 41 42 43 44 45 46 47 48 49 50
000
ASUS45 KCYS 270910
RWRWY

WYOMING REGIONAL WEATHER ROUNDUP
NATIONAL WEATHER SERVICE CHEYENNE WY
200 AM MST TUE JAN 27 2015

NOTE:  "FAIR" INDICATES FEW OR NO CLOUDS BELOW 12,000 FEET
WITH NO SIGNIFICANT WEATHER AND/OR OBSTRUCTIONS TO VISIBILITY.

WYZ001-271000-
YELLOWSTONE NATIONAL PARK

CITY           SKY/WX    TMP DP  RH WIND       PRES   REMARKS
LK YELLOWSTONE   N/A     11   7  84 CALM      30.29F
W YELLOWSTONE  NOT AVBL

$$
WYZ002>013-054>058-071-098>099-271000-
NORTHERN WYOMING

CITY           SKY/WX    TMP DP  RH WIND       PRES   REMARKS
JACKSON        CLOUDY     9   7  92 N8        30.31S VSB 1   WCI  -4
CODY           FAIR      43  27  52 CALM      30.08F
GREYBULL       FAIR      18  17  96 CALM      30.12F
WORLAND        FAIR      15  12  88 CALM      30.11F
SHERIDAN       FAIR      41  24  51 NE5       29.98S
BUFFALO        FAIR      58  19  22 E5        30.03F
GILLETTE       FAIR      47  28  47 SW16      30.00S
HULETT           N/A     45  28  53 MISG        N/A
NEWCASTLE      FAIR      34  28  80 CALM      30.07R

$$
WYZ014>020-022>026-101>103-271000-
CENTRAL WYOMING

CITY           SKY/WX    TMP DP  RH WIND       PRES   REMARKS
BIG PINEY      FAIR      17  13  84 NW6       30.30F WCI   9
PINEDALE       FAIR      12  12 100 W7        30.31R WCI   2
DUBOIS         FAIR      36  19  51 W16       30.23S WCI  26
LANDER         FAIR      33  26  75 CALM      30.18F
RIVERTON       FAIR      27  23  85 NW5       30.20S WCI  22
CASPER         FAIR      45  23  42 SW18      30.14F
DOUGLAS        FAIR      37  26  64 N9        30.11S WCI  30

$$
WYZ021-027>030-104>119-271000-
SOUTHERN WYOMING

CITY           SKY/WX    TMP DP  RH WIND       PRES   REMARKS
EVANSTON       FAIR      37  26  64 E8        30.25F WCI  31
KEMMERER       FAIR      27  19  74 N9        30.28S WCI  17
FORT BRIDGER   FAIR      35  29  79 N5        30.30S WCI  31
ROCK SPRINGS   FAIR      32  24  72 NE6       30.26F WCI  26
DIXON          FAIR      25  20  82 E5        30.36S WCI  19
RAWLINS        FAIR      25  21  85 CALM      30.29F
SARATOGA       FAIR      32  25  74 S5        30.30S WCI  27
LARAMIE        FAIR      29  20  69 S9        30.28S WCI  20
CHEYENNE       FAIR      43  20  39 NW8       30.19F
TORRINGTON     FAIR      30  25  81 E7        30.08F WCI  23
PINE BLUFFS    FAIR      34  25  69 S7        30.15F WCI  28

$$


USA.gov is the U.S. government's official web portal to all federal, state and local government web resources and services.